{"data":{"norad_id":48970,"intl_designator":"2021-060D","name":"ONEWEB-0252","alt_names":[],"object_type":"PAYLOAD","status":"ACTIVE","operator":null,"country":"UK","launch_date":"2021-07-01","launch_site_code":"VOSTO","launch_vehicle":null,"mission":null,"orbit_class":"UNKNOWN","rcs_meters":null,"size_class":null,"mass_kg":null,"dimensions":null,"purposes":["comms"],"wikipedia_slug":null,"has_3d_model":false,"image_url":null,"decayed_at":null,"tle_current":{"epoch":"2026-05-25T05:00:29.367936Z","epoch_age_seconds":57795,"freshness":"FRESH","line1":"1 48970U 21060D   26145.20867324  .00000016  00000+0  73854-5 0  9995","line2":"2 48970  87.9106 233.3322 0002124  94.3240 265.8134 13.16595839236639","mean_motion":13.16595839,"eccentricity":0.0002124,"inclination_deg":87.9106,"raan_deg":233.3322,"arg_perigee_deg":94.324,"mean_anomaly_deg":265.8134,"bstar":7.3854e-6,"rev_number":23663,"period_min":109.37297212588,"perigee_km":1196.1414798536,"apogee_km":1199.3597169054,"semimajor_km":7575.8875983795,"source":"CELESTRAK","updated_at":"2026-05-25T13:38:22.449961Z"}}}